• In Deutschland
  • Länderverzeichnis
  • Für 7 Tage
  • Wassertemperatur
  • Satellitenkarten
  • Wetterkarte
  • Widgets
  • user-avatar
    Anmelden

    Stündliche Wetter Kościan

    Heute, 18 Juni, Montag

    Zeit Temperatur Niederschläge Wind Luftdruck Luftfeuchtigkeit
    00:00 +18°C° 0,3 mm 2 m/S 756 mmHg 87%
    01:00 +17°C° 0,3 mm 2 m/S 756 mmHg 92%
    02:00 +17°C° 0 mm 2 m/S 756 mmHg 92%
    03:00 +17°C° 0 mm 3 m/S 757 mmHg 91%
    04:00 +17°C° 0 mm 3 m/S 757 mmHg 91%
    05:00 +17°C° 0 mm 3 m/S 757 mmHg 88%
    06:00 +18°C° 0 mm 3 m/S 757 mmHg 84%
    07:00 +18°C° 0 mm 2 m/S 758 mmHg 81%
    08:00 +20°C° 0 mm 2 m/S 758 mmHg 73%
    09:00 +21°C° 0 mm 2 m/S 758 mmHg 66%
    10:00 +24°C° 0 mm 2 m/S 758 mmHg 58%
    11:00 +24°C° 0 mm 2 m/S 758 mmHg 56%
    12:00 +25°C° 0 mm 3 m/S 758 mmHg 54%
    13:00 +25°C° 0 mm 3 m/S 758 mmHg 51%
    14:00 +25°C° 0 mm 3 m/S 758 mmHg 51%
    15:00 +25°C° 0 mm 3 m/S 758 mmHg 51%
    16:00 +25°C° 0 mm 3 m/S 758 mmHg 51%
    17:00 +24°C° 0 mm 3 m/S 758 mmHg 56%
    18:00 +23°C° 0 mm 2 m/S 758 mmHg 60%
    19:00 +23°C° 0 mm 2 m/S 758 mmHg 64%
    20:00 +20°C° 0 mm 2 m/S 758 mmHg 66%
    21:00 +20°C° 0 mm 1 m/S 759 mmHg 68%
    22:00 +18°C° 0 mm 1 m/S 759 mmHg 70%
    23:00 +18°C° 0 mm 1 m/S 759 mmHg 71%

    Morgen, 19 Juni, Dienstag

    Zeit Temperatur Niederschläge Wind Luftdruck Luftfeuchtigkeit
    00:00 +16°C° 0 mm 1 m/S 759 mmHg 73%
    01:00 +16°C° 0 mm 2 m/S 759 mmHg 74%
    02:00 +16°C° 0 mm 2 m/S 759 mmHg 77%
    03:00 +15°C° 0 mm 2 m/S 759 mmHg 80%
    04:00 +15°C° 0 mm 2 m/S 759 mmHg 83%
    05:00 +17°C° 0 mm 3 m/S 760 mmHg 80%
    06:00 +18°C° 0 mm 3 m/S 760 mmHg 77%
    07:00 +20°C° 0 mm 3 m/S 760 mmHg 74%
    08:00 +21°C° 0 mm 4 m/S 760 mmHg 70%
    09:00 +23°C° 0 mm 4 m/S 760 mmHg 65%
    10:00 +25°C° 0 mm 4 m/S 760 mmHg 60%
    11:00 +25°C° 0 mm 4 m/S 760 mmHg 58%
    12:00 +26°C° 0 mm 4 m/S 760 mmHg 55%
    13:00 +27°C° 0 mm 4 m/S 760 mmHg 53%
    14:00 +27°C° 0 mm 4 m/S 759 mmHg 52%
    15:00 +27°C° 0 mm 4 m/S 759 mmHg 50%
    16:00 +28°C° 0 mm 4 m/S 759 mmHg 48%
    17:00 +27°C° 0 mm 3 m/S 759 mmHg 53%
    18:00 +26°C° 0 mm 2 m/S 759 mmHg 58%
    19:00 +25°C° 0 mm 2 m/S 760 mmHg 63%
    20:00 +23°C° 0 mm 2 m/S 760 mmHg 69%
    21:00 +21°C° 0 mm 2 m/S 760 mmHg 75%
    22:00 +19°C° 0 mm 2 m/S 761 mmHg 81%
    23:00 +19°C° 0 mm 2 m/S 761 mmHg 84%

    übermorgen, 20 Juni, Mittwoch

    Zeit Temperatur Niederschläge Wind Luftdruck Luftfeuchtigkeit
    00:00 +19°C° 0 mm 1 m/S 761 mmHg 88%
    01:00 +18°C° 0 mm 1 m/S 761 mmHg 91%
    02:00 +18°C° 0 mm 1 m/S 761 mmHg 92%
    03:00 +18°C° 0 mm 1 m/S 761 mmHg 93%
    04:00 +15°C° 0 mm 0 m/S 761 mmHg 94%
    05:00 +17°C° 0 mm 0 m/S 762 mmHg 88%
    06:00 +19°C° 0 mm 0 m/S 762 mmHg 82%
    07:00 +20°C° 0 mm 0 m/S 762 mmHg 76%
    08:00 +24°C° 0,1 mm 1 m/S 762 mmHg 71%
    09:00 +25°C° 0,1 mm 1 m/S 761 mmHg 66%
    10:00 +27°C° 0,1 mm 1 m/S 761 mmHg 60%
    11:00 +27°C° 0,1 mm 1 m/S 761 mmHg 58%
    12:00 +28°C° 0,1 mm 1 m/S 761 mmHg 56%
    13:00 +28°C° 0,1 mm 1 m/S 760 mmHg 54%
    14:00 +28°C° 0 mm 1 m/S 760 mmHg 53%
    15:00 +28°C° 0 mm 1 m/S 760 mmHg 53%
    16:00 +29°C° 0 mm 1 m/S 759 mmHg 52%
    17:00 +28°C° 0 mm 1 m/S 759 mmHg 57%
    18:00 +27°C° 0 mm 1 m/S 759 mmHg 61%
    19:00 +26°C° 0 mm 1 m/S 759 mmHg 65%
    20:00 +25°C° 0 mm 1 m/S 759 mmHg 68%
    21:00 +24°C° 0 mm 1 m/S 759 mmHg 71%
    22:00 +23°C° 0 mm 2 m/S 759 mmHg 74%
    23:00 +21°C° 0 mm 2 m/S 759 mmHg 76%

    21 Juni, Donnerstag

    Zeit Temperatur Niederschläge Wind Luftdruck Luftfeuchtigkeit
    00:00 +21°C° 0 mm 2 m/S 758 mmHg 79%
    01:00 +20°C° 0 mm 2 m/S 758 mmHg 82%
    02:00 +20°C° 0 mm 2 m/S 757 mmHg 83%
    03:00 +20°C° 0 mm 2 m/S 757 mmHg 85%
    04:00 +19°C° 0 mm 2 m/S 756 mmHg 86%
    05:00 +21°C° 0 mm 2 m/S 756 mmHg 81%
    06:00 +22°C° 0 mm 3 m/S 756 mmHg 76%
    07:00 +25°C° 0 mm 3 m/S 755 mmHg 70%
    08:00 +26°C° 0 mm 3 m/S 755 mmHg 64%
    09:00 +28°C° 0 mm 3 m/S 754 mmHg 58%
    10:00 +29°C° 0 mm 3 m/S 754 mmHg 53%
    11:00 +30°C° 0 mm 4 m/S 753 mmHg 51%
    12:00 +30°C° 0 mm 4 m/S 752 mmHg 50%
    13:00 +32°C° 0 mm 4 m/S 751 mmHg 49%
    14:00 +30°C° 0,1 mm 4 m/S 751 mmHg 52%
    15:00 +30°C° 0,1 mm 3 m/S 750 mmHg 54%
    16:00 +29°C° 0,1 mm 3 m/S 749 mmHg 57%
    17:00 +28°C° 1 mm 4 m/S 749 mmHg 65%
    18:00 +26°C° 1 mm 4 m/S 749 mmHg 72%
    19:00 +23°C° 1 mm 4 m/S 749 mmHg 80%
    20:00 +22°C° 0,3 mm 5 m/S 750 mmHg 83%
    21:00 +20°C° 0,3 mm 6 m/S 751 mmHg 86%
    22:00 +17°C° 0,3 mm 7 m/S 751 mmHg 89%
    23:00 +15°C° 0 mm 6 m/S 752 mmHg 88%

    22 Juni, Freitag

    Zeit Temperatur Niederschläge Wind Luftdruck Luftfeuchtigkeit
    00:00 +14°C° 0 mm 6 m/S 753 mmHg 87%
    01:00 +12°C° 0 mm 5 m/S 753 mmHg 86%
    02:00 +12°C° 0 mm 5 m/S 753 mmHg 85%
    03:00 +11°C° 0 mm 4 m/S 754 mmHg 84%
    04:00 +10°C° 0 mm 4 m/S 754 mmHg 82%
    05:00 +10°C° 0 mm 5 m/S 754 mmHg 79%
    06:00 +11°C° 0 mm 6 m/S 754 mmHg 75%
    07:00 +11°C° 0 mm 6 m/S 755 mmHg 71%
    08:00 +13°C° 0 mm 6 m/S 755 mmHg 65%
    09:00 +14°C° 0 mm 7 m/S 755 mmHg 59%
    10:00 +16°C° 0 mm 7 m/S 755 mmHg 52%
    11:00 +16°C° 0 mm 7 m/S 755 mmHg 51%
    12:00 +16°C° 0 mm 7 m/S 755 mmHg 49%
    13:00 +16°C° 0 mm 7 m/S 755 mmHg 48%
    14:00 +16°C° 0 mm 7 m/S 755 mmHg 48%
    15:00 +17°C° 0 mm 8 m/S 754 mmHg 48%
    16:00 +17°C° 0 mm 8 m/S 754 mmHg 49%
    17:00 +16°C° 0 mm 7 m/S 754 mmHg 53%
    18:00 +16°C° 0 mm 6 m/S 754 mmHg 58%
    19:00 +15°C° 0 mm 5 m/S 754 mmHg 63%
    20:00 +14°C° 0 mm 5 m/S 754 mmHg 66%
    21:00 +13°C° 0 mm 5 m/S 754 mmHg 69%
    22:00 +12°C° 0 mm 4 m/S 754 mmHg 72%
    23:00 +12°C° 0 mm 4 m/S 754 mmHg 74%

    23 Juni, Samstag

    Zeit Temperatur Niederschläge Wind Luftdruck Luftfeuchtigkeit
    00:00 +10°C° 0 mm 5 m/S 754 mmHg 77%
    01:00 +10°C° 0 mm 5 m/S 754 mmHg 79%
    02:00 +10°C° 0,2 mm 5 m/S 754 mmHg 83%
    03:00 +10°C° 0,2 mm 5 m/S 754 mmHg 88%
    04:00 +10°C° 0,2 mm 4 m/S 754 mmHg 92%
    05:00 +10°C° 0,3 mm 5 m/S 755 mmHg 90%
    06:00 +10°C° 0,3 mm 5 m/S 755 mmHg 87%
    07:00 +10°C° 0,3 mm 5 m/S 755 mmHg 85%
    08:00 +11°C° 0,1 mm 6 m/S 755 mmHg 80%
    09:00 +13°C° 0,1 mm 6 m/S 755 mmHg 76%
    10:00 +14°C° 0,1 mm 6 m/S 756 mmHg 71%
    11:00 +15°C° 0,2 mm 6 m/S 755 mmHg 66%
    12:00 +17°C° 0,2 mm 6 m/S 755 mmHg 60%
    13:00 +19°C° 0,2 mm 6 m/S 755 mmHg 54%
    14:00 +19°C° 0,3 mm 6 m/S 755 mmHg 55%
    15:00 +19°C° 0,3 mm 6 m/S 755 mmHg 55%
    16:00 +19°C° 0,3 mm 6 m/S 755 mmHg 55%
    17:00 +17°C° 0,3 mm 5 m/S 756 mmHg 61%
    18:00 +16°C° 0,3 mm 5 m/S 756 mmHg 66%
    19:00 +15°C° 0,3 mm 4 m/S 756 mmHg 72%
    20:00 +14°C° 0 mm 4 m/S 756 mmHg 75%
    21:00 +13°C° 0 mm 4 m/S 757 mmHg 79%
    22:00 +12°C° 0 mm 3 m/S 757 mmHg 82%
    23:00 +11°C° 0 mm 4 m/S 758 mmHg 84%
    Mehr zeigen